Погода в Вернадовке

Россия / Тамбовская область     53°18′22″N   42°23′20″E
темп.,
°C
ветер,
м/с
пор.,
м/с
влажн.,
%
обл.,
%
осадки,
мм/ч
давл.,
гПа
погр.,
м
20 мая, пт
пт2000:00+6с33936 0.0 101347
03:00+5сз349269 0.0 101374
06:00+7с259118 0.3 1013174
09:00+9с686633 0.3 1014982
12:00+10ссз784899 0.0 10142169
15:00+10с785096 0.0 10141968
18:00+9с68573 0.0 10151500
21:00+5ссз35674 0.0 101678
21 мая, сб
сб2100:00+3сз22710 0.0 101526
03:00+2ссз34785 0.0 101577
06:00+4ссз23736 0.0 1015145
09:00+8с235749 0.0 1013853
12:00+11ссз1346100 0.0 10121992
15:00+13з134298 0.0 10101951
18:00+12сз235550 0.0 10091002
21:00+7св336813 0.0 100838
22 мая, вс
вс2200:00+6св2270100 0.0 100722
03:00+5всв2275100 0.0 100631
06:00+5всв4679100 0.0 1005206
09:00+10всв4564100 0.0 1003922
12:00+11св4455100 0.2 10021404
15:00+12св4548100 0.3 10011728
18:00+10ссв456468 0.1 10021058
21:00+6св38755 0.1 1003147
23 мая, пн
пн2300:00+4ссв33835 0.0 100351
03:00+3ссз33845 0.0 100447
06:00+4сз35795 0.0 1005196
09:00+9сз466164 0.0 10041492
12:00+10сз5757100 0.3 10041674
15:00+11сз575799 0.5 10051576
18:00+10сз4768100 0.2 1005723
21:00+6з368098 0.3 100696
24 мая, вт
вт2400:00+5з3785100 0.0 1006119
03:00+4зсз358772 0.0 100781
06:00+5зсз388143 0.0 1008243
09:00+10сз35515 0.0 10081081
12:00+12зсз6845100 0.0 10072403
15:00+11сз7857100 0.1 10081627
18:00+10ссз587180 0.2 10101252
21:00+5с368396 0.2 1013160